CZ-3C DEB, 39349

Orbit data source: Space-Track

CZ-3C DEB, 39349 is space debris in HEO originally from a launch on Sun, 31 Oct 2010 UTC launched from the Xichang Space Center, China (XSC). Debris objects in space refer to the collection of defunct objects orbiting the Earth. Examples of debris include non-operational satellites, rocket bodies, and fragments generated from explosions, collisions, or faulty payload assembly.

Loading next visibility...
Identifier
39349, 2010-057P
Orbit
HEO
Country
Flag of CNCN / PRC
Related business
Manufacturer
CALT
Mission
Spacecraft
Bus & Motor
Unknown
Mass
Unknown
Launch date (UTC)
2010-10-31 (15 years ago)
Launch vehicle
Unknown
Launch site
Xichang Space Center, China (XSC)
Object type
Payload
Rocket body
Debris
Shape & HBR
Unknown shape, 0.4 m
Radar Cross Section
Medium (>0.1 m² and <1 m²)

Expand to show TLE details & history
Last TLE update: 22 hours ago

TLE from 22 hours ago
0 CZ-3C DEB
1 39349U 10057P   25293.18983633  .00000483  00000-0  43350-2 0  9995
2 39349  20.5549  75.2610 7153345 195.8921  99.1840  2.30100593 92239
Epoch: 2025-10-20T04:33Z
TLE epoch observation values (Epoch: 2025-10-20T04:33:21.858Z)
Latitude
-1.91473°
Longitude
-27.14756°
Altitude
29,094.071 km
Speed
2.455 km/s
True Right ascension
04h 40m 21s
True Declination
-1° 54' 45"
Sunlit
Object was in daylight at epoch
Visualization orbit readout
Latitude
Unknown
Longitude
Unknown
Altitude
Unknown
Speed
Unknown
Apparent Right ascension
Unknown
Apparent Declination
Unknown
Sunlit
N/A
Visualization observer readout
Local Sidereal Time
21:41:42
Azimuth
Unknown
Elevation
Unknown
Doppler factor
Unknown
Orbital elements
Apogee altitude
35,201.775 km
Perigee altitude
522.188 km
Semi-major axis
24,240.119 km
Eccentricity
0.71533
Inclination
20.5549°
RAAN
75.261°
Arg. of periapsis
195.8921°
True anomaly
158.67829°
Mean anomaly
99.184°
Eccentric anomaly
130.39736°
Mean motion
0.5751 °/min
Orbital period
625.98 mins
BSTAR
0.004335
Loading maneuver chart data...
Computing Atmospheric mass density...
Loading historical data...
Loading historical data...
Loading historical data...
Loading historical data...
Loading historical data...
Loading historical data...
Loading historical data...

Documentation

Showing up to 5 results
|